Year,Month,Day,Hour,Minute,Value (Times are PST for temperature in C)
2002,09,25,00,00,13.00
2002,09,25,00,01,13.00
2002,09,25,00,02,13.00
2002,09,25,00,03,12.90
2002,09,25,00,04,12.90
2002,09,25,00,05,12.90
2002,09,25,00,06,12.80
2002,09,25,00,07,12.80
2002,09,25,00,08,12.80
2002,09,25,00,09,12.70
2002,09,25,00,10,12.70
2002,09,25,00,11,12.70
2002,09,25,00,12,12.60
2002,09,25,00,13,12.60
2002,09,25,00,14,12.60
2002,09,25,00,15,12.50
2002,09,25,00,16,12.50
2002,09,25,00,17,12.40
2002,09,25,00,18,12.40
2002,09,25,00,19,12.40
2002,09,25,00,20,12.40
2002,09,25,00,21,12.50
2002,09,25,00,22,12.50
2002,09,25,00,23,12.50
2002,09,25,00,24,12.60
2002,09,25,00,25,12.60
2002,09,25,00,26,12.60
2002,09,25,00,27,12.60
2002,09,25,00,28,12.60
2002,09,25,00,29,12.60
2002,09,25,00,30,12.60
2002,09,25,00,31,12.50
2002,09,25,00,32,12.50
2002,09,25,00,33,12.50
2002,09,25,00,34,12.50
2002,09,25,00,35,12.40
2002,09,25,00,36,12.40
2002,09,25,00,37,12.40
2002,09,25,00,38,12.40
2002,09,25,00,39,12.30
2002,09,25,00,40,12.30
2002,09,25,00,41,12.30
2002,09,25,00,42,12.30
2002,09,25,00,43,12.30
2002,09,25,00,44,12.30
2002,09,25,00,45,12.30
2002,09,25,00,46,12.30
2002,09,25,00,47,12.30
2002,09,25,00,48,12.30
2002,09,25,00,49,12.30
2002,09,25,00,50,12.20
2002,09,25,00,51,12.20
2002,09,25,00,52,12.20
2002,09,25,00,53,12.20
2002,09,25,00,54,12.10
2002,09,25,00,55,12.10
2002,09,25,00,56,12.10
2002,09,25,00,57,12.10
2002,09,25,00,58,12.10
2002,09,25,00,59,12.10
2002,09,25,01,00,12.10
2002,09,25,01,01,12.10
2002,09,25,01,02,12.10
2002,09,25,01,03,12.10
2002,09,25,01,04,12.10
2002,09,25,01,05,12.10
2002,09,25,01,06,12.10
2002,09,25,01,07,12.10
2002,09,25,01,08,12.10
2002,09,25,01,09,12.10
2002,09,25,01,10,12.10
2002,09,25,01,11,12.10
2002,09,25,01,12,12.10
2002,09,25,01,13,12.10
2002,09,25,01,14,12.10
2002,09,25,01,15,12.00
2002,09,25,01,16,12.00
2002,09,25,01,17,12.00
2002,09,25,01,18,12.00
2002,09,25,01,19,12.00
2002,09,25,01,20,12.00
2002,09,25,01,21,11.90
2002,09,25,01,22,11.90
2002,09,25,01,23,11.90
2002,09,25,01,24,11.90
2002,09,25,01,25,11.90
2002,09,25,01,26,11.90
2002,09,25,01,27,11.90
2002,09,25,01,28,11.90
2002,09,25,01,29,11.90
2002,09,25,01,30,11.90
2002,09,25,01,31,11.90
2002,09,25,01,32,12.00
2002,09,25,01,33,12.00
2002,09,25,01,34,12.00
2002,09,25,01,35,12.00
2002,09,25,01,36,12.00
2002,09,25,01,37,12.00
2002,09,25,01,38,12.00
2002,09,25,01,39,12.00
2002,09,25,01,40,12.00
2002,09,25,01,41,12.00
2002,09,25,01,42,12.00
2002,09,25,01,43,12.00
2002,09,25,01,44,12.00
2002,09,25,01,45,12.00
2002,09,25,01,46,12.00
2002,09,25,01,47,12.00
2002,09,25,01,48,12.00
2002,09,25,01,49,12.00
2002,09,25,01,50,12.00
2002,09,25,01,51,12.00
2002,09,25,01,52,12.00
2002,09,25,01,53,12.00
2002,09,25,01,54,12.00
2002,09,25,01,55,12.20
2002,09,25,01,56,12.30
2002,09,25,01,57,12.30
2002,09,25,01,58,12.30
2002,09,25,01,59,12.30
2002,09,25,02,00,12.30
2002,09,25,02,01,12.30
2002,09,25,02,02,12.30
2002,09,25,02,03,12.30
2002,09,25,02,04,12.50
2002,09,25,02,05,12.60
2002,09,25,02,06,12.50
2002,09,25,02,07,12.50
2002,09,25,02,08,12.40
2002,09,25,02,09,12.40
2002,09,25,02,10,12.30
2002,09,25,02,11,12.30
2002,09,25,02,12,12.30
2002,09,25,02,13,12.30
2002,09,25,02,14,12.30
2002,09,25,02,15,12.30
2002,09,25,02,16,12.40
2002,09,25,02,17,12.60
2002,09,25,02,18,12.60
2002,09,25,02,19,12.60
2002,09,25,02,20,12.60
2002,09,25,02,21,12.60
2002,09,25,02,22,12.60
2002,09,25,02,23,12.60
2002,09,25,02,24,12.60
2002,09,25,02,25,12.70
2002,09,25,02,26,12.80
2002,09,25,02,27,12.80
2002,09,25,02,28,12.80
2002,09,25,02,29,12.80
2002,09,25,02,30,12.70
2002,09,25,02,31,12.70
2002,09,25,02,32,12.60
2002,09,25,02,33,12.60
2002,09,25,02,34,12.60
2002,09,25,02,35,12.60
2002,09,25,02,36,12.60
2002,09,25,02,37,12.60
2002,09,25,02,38,12.60
2002,09,25,02,39,12.60
2002,09,25,02,40,12.60
2002,09,25,02,41,12.60
2002,09,25,02,42,12.60
2002,09,25,02,43,12.60
2002,09,25,02,44,12.60
2002,09,25,02,45,12.60
2002,09,25,02,46,12.60
2002,09,25,02,47,12.60
2002,09,25,02,48,12.60
2002,09,25,02,49,12.60
2002,09,25,02,50,12.60
2002,09,25,02,51,12.60
2002,09,25,02,52,12.60
2002,09,25,02,53,12.60
2002,09,25,02,54,12.60
2002,09,25,02,55,12.60
2002,09,25,04,03,11.80
2002,09,25,04,04,11.80
2002,09,25,04,05,11.80
2002,09,25,04,06,11.80
2002,09,25,04,07,11.80
2002,09,25,04,08,11.80
2002,09,25,04,09,11.80
2002,09,25,04,10,11.80
2002,09,25,04,11,11.80
2002,09,25,04,12,11.80
2002,09,25,04,13,11.90
2002,09,25,04,14,11.90
2002,09,25,04,15,11.90
2002,09,25,04,16,11.90
2002,09,25,04,17,11.80
2002,09,25,04,18,11.80
2002,09,25,04,19,11.80
2002,09,25,04,20,11.80
2002,09,25,04,21,11.80
2002,09,25,04,22,11.80
2002,09,25,04,23,11.80
2002,09,25,04,24,11.70
2002,09,25,04,25,11.70
2002,09,25,04,26,11.60
2002,09,25,04,27,11.60
2002,09,25,04,28,11.40
2002,09,25,04,29,11.40
2002,09,25,04,30,11.40
2002,09,25,04,31,11.40
2002,09,25,04,32,11.40
2002,09,25,04,33,11.40
2002,09,25,04,34,11.40
2002,09,25,04,35,11.40
2002,09,25,04,36,11.40
2002,09,25,04,37,11.40
2002,09,25,04,38,11.40
2002,09,25,04,39,11.40
2002,09,25,04,40,11.40
2002,09,25,04,41,11.40
2002,09,25,04,42,11.40
2002,09,25,04,43,11.40
2002,09,25,04,44,11.40
2002,09,25,04,45,11.40
2002,09,25,04,46,11.40
2002,09,25,04,47,11.40
2002,09,25,04,48,11.40
2002,09,25,04,49,11.40
2002,09,25,04,50,11.40
2002,09,25,04,51,11.40
2002,09,25,04,52,11.40
2002,09,25,04,53,11.40
2002,09,25,04,54,11.40
2002,09,25,04,55,11.40
2002,09,25,04,56,11.40
2002,09,25,04,57,11.40
2002,09,25,04,58,11.40
2002,09,25,04,59,11.40
2002,09,25,05,00,11.10
2002,09,25,05,01,11.10
2002,09,25,05,02,11.10
2002,09,25,05,03,11.10
2002,09,25,05,04,11.10
2002,09,25,05,05,11.10
2002,09,25,05,06,11.10
2002,09,25,05,07,11.10
2002,09,25,05,08,11.10
2002,09,25,05,09,11.10
2002,09,25,05,10,11.10
2002,09,25,05,11,11.10
2002,09,25,05,12,11.10
2002,09,25,05,13,11.00
2002,09,25,05,14,10.90
2002,09,25,05,15,10.90
2002,09,25,05,16,10.90
2002,09,25,05,17,10.90
2002,09,25,05,18,10.90
2002,09,25,05,19,10.90
2002,09,25,05,20,10.90
2002,09,25,05,21,10.90
2002,09,25,05,22,10.90
2002,09,25,05,23,10.90
2002,09,25,05,24,10.90
2002,09,25,05,25,10.90
2002,09,25,05,26,10.90
2002,09,25,05,27,10.90
2002,09,25,05,28,10.80
2002,09,25,05,29,10.80
2002,09,25,05,30,10.80
2002,09,25,05,31,10.70
2002,09,25,05,32,10.60
2002,09,25,05,33,10.60
2002,09,25,05,34,10.60
2002,09,25,05,35,10.60
2002,09,25,05,36,10.60
2002,09,25,05,37,10.60
2002,09,25,05,38,10.70
2002,09,25,05,39,10.60
2002,09,25,05,40,10.60
2002,09,25,05,41,10.60
2002,09,25,05,42,10.60
2002,09,25,05,43,10.60
2002,09,25,05,44,10.60
2002,09,25,05,45,10.60
2002,09,25,05,46,10.60
2002,09,25,05,47,10.60
2002,09,25,05,48,10.60
2002,09,25,05,49,10.60
2002,09,25,06,06,10.30
2002,09,25,06,07,10.30
2002,09,25,06,08,10.30
2002,09,25,06,09,10.30
2002,09,25,06,10,10.30
2002,09,25,06,11,10.30
2002,09,25,06,12,10.30
2002,09,25,06,13,10.30
2002,09,25,06,14,10.30
2002,09,25,06,15,10.30
2002,09,25,06,16,10.30
2002,09,25,06,17,10.30
2002,09,25,06,18,10.30
2002,09,25,06,19,10.30
2002,09,25,06,20,10.30
2002,09,25,06,21,10.20
2002,09,25,06,22,10.20
2002,09,25,06,23,10.20
2002,09,25,06,24,10.20
2002,09,25,06,25,10.20
2002,09,25,06,26,10.10
2002,09,25,06,27,10.10
2002,09,25,06,28,10.20
2002,09,25,06,29,10.20
2002,09,25,06,30,10.20
2002,09,25,06,31,10.30
2002,09,25,06,32,10.20
2002,09,25,06,33,10.20
2002,09,25,06,34,10.20
2002,09,25,06,35,10.10
2002,09,25,06,36,10.10
2002,09,25,06,37,10.10
2002,09,25,06,38,10.10
2002,09,25,06,39,10.10
2002,09,25,06,40,10.10
2002,09,25,06,41,10.10
2002,09,25,06,42,10.10
2002,09,25,06,43,10.10
2002,09,25,06,44,10.10
2002,09,25,06,45,10.30
2002,09,25,06,46,10.30
2002,09,25,06,47,10.30
2002,09,25,06,48,10.30
2002,09,25,06,49,10.30
2002,09,25,06,50,10.30
2002,09,25,06,51,10.30
2002,09,25,06,52,10.30
2002,09,25,06,53,10.30
2002,09,25,06,54,10.30
2002,09,25,06,55,10.10
2002,09,25,06,56,10.10
2002,09,25,06,57,10.10
2002,09,25,06,58,10.20
2002,09,25,06,59,10.20
2002,09,25,07,00,10.10
2002,09,25,07,01,10.10
2002,09,25,07,02,10.10
2002,09,25,07,03,10.20
2002,09,25,07,04,10.20
2002,09,25,07,05,10.20
2002,09,25,07,06,10.20
2002,09,25,07,07,10.10
2002,09,25,07,08,10.10
2002,09,25,07,09,10.10
2002,09,25,07,10,10.10
2002,09,25,07,11,10.10
2002,09,25,07,12,10.10
2002,09,25,07,13,10.10
2002,09,25,07,14,10.10
2002,09,25,07,15,10.10
2002,09,25,07,16,10.10
2002,09,25,07,17,10.10
2002,09,25,07,18,10.10
2002,09,25,07,19,10.10
2002,09,25,07,20,10.10
2002,09,25,07,21,10.10
2002,09,25,07,22,10.10
2002,09,25,07,23,10.10
2002,09,25,07,24,10.10
2002,09,25,07,25,10.10
2002,09,25,07,26,10.10
2002,09,25,07,27,10.10
2002,09,25,07,28,10.10
2002,09,25,07,29,10.10
2002,09,25,07,30,10.30
2002,09,25,07,31,10.30
2002,09,25,07,32,10.30
2002,09,25,07,33,10.30
2002,09,25,07,34,10.30
2002,09,25,07,35,10.40
2002,09,25,07,36,10.40
2002,09,25,07,37,10.40
2002,09,25,07,38,10.40
2002,09,25,07,39,10.50
2002,09,25,07,40,10.60
2002,09,25,07,41,10.60
2002,09,25,07,42,10.60
2002,09,25,07,43,10.60
2002,09,25,07,44,10.60
2002,09,25,07,45,10.60
2002,09,25,07,46,10.60
2002,09,25,07,47,10.60
2002,09,25,07,48,10.60
2002,09,25,07,49,10.60
2002,09,25,07,50,10.60
2002,09,25,07,51,10.90
2002,09,25,07,52,10.90
2002,09,25,07,53,10.90
2002,09,25,07,54,11.00
2002,09,25,07,55,11.10
2002,09,25,07,56,11.10
2002,09,25,07,57,11.30
2002,09,25,07,58,11.40
2002,09,25,07,59,11.50
2002,09,25,08,00,11.60
2002,09,25,08,01,11.70
2002,09,25,08,02,11.80
2002,09,25,08,03,11.80
2002,09,25,08,04,11.90
2002,09,25,08,05,11.90
2002,09,25,08,06,12.00
2002,09,25,08,07,12.00
2002,09,25,08,08,12.00
2002,09,25,08,09,12.00
2002,09,25,08,10,12.10
2002,09,25,08,11,12.20
2002,09,25,08,12,12.30
2002,09,25,08,13,12.40
2002,09,25,08,14,12.50
2002,09,25,08,15,12.60
2002,09,25,08,16,12.80
2002,09,25,08,17,12.90
2002,09,25,08,18,13.00
2002,09,25,08,19,13.10
2002,09,25,08,20,13.30
2002,09,25,08,21,13.50
2002,09,25,08,22,13.60
2002,09,25,08,23,13.80
2002,09,25,08,24,14.10
2002,09,25,08,25,14.20
2002,09,25,08,26,14.30
2002,09,25,08,27,14.50
2002,09,25,08,28,14.60
2002,09,25,08,29,14.80
2002,09,25,08,30,14.90
2002,09,25,08,31,15.00
2002,09,25,08,32,15.10
2002,09,25,08,33,15.20
2002,09,25,08,34,15.20
2002,09,25,08,35,15.20
2002,09,25,08,36,15.20
2002,09,25,08,37,15.20
2002,09,25,08,38,15.20
2002,09,25,08,39,15.20
2002,09,25,08,40,15.30
2002,09,25,08,41,15.40
2002,09,25,08,42,15.50
2002,09,25,08,43,15.60
2002,09,25,08,44,15.70
2002,09,25,08,45,15.70
2002,09,25,08,46,15.70
2002,09,25,08,47,15.70
2002,09,25,08,48,15.70
2002,09,25,08,49,15.70
2002,09,25,08,50,15.70
2002,09,25,08,51,15.70
2002,09,25,08,52,15.60
2002,09,25,08,53,15.60
2002,09,25,08,54,15.60
2002,09,25,08,55,15.70
2002,09,25,08,56,15.80
2002,09,25,08,57,15.90
2002,09,25,08,58,16.10
2002,09,25,08,59,16.20
2002,09,25,09,00,16.20
2002,09,25,09,01,16.30
2002,09,25,09,02,16.40
2002,09,25,09,03,16.60
2002,09,25,09,04,16.70
2002,09,25,09,05,16.90
2002,09,25,09,06,17.00
2002,09,25,09,07,17.00
2002,09,25,09,08,17.10
2002,09,25,09,09,17.40
2002,09,25,09,10,17.50
2002,09,25,09,11,17.50
2002,09,25,09,12,17.40
2002,09,25,09,13,17.40
2002,09,25,09,14,17.40
2002,09,25,09,15,17.30
2002,09,25,09,16,17.30
2002,09,25,09,17,17.30
2002,09,25,09,18,17.30
2002,09,25,09,19,17.40
2002,09,25,09,20,17.40
2002,09,25,09,21,17.40
2002,09,25,09,22,17.40
2002,09,25,09,23,17.40
2002,09,25,09,24,17.40
2002,09,25,09,25,17.30
2002,09,25,09,26,17.30
2002,09,25,09,27,17.40
2002,09,25,09,28,17.40
2002,09,25,09,29,17.40
2002,09,25,09,30,17.40
2002,09,25,09,31,17.40
2002,09,25,09,32,17.50
2002,09,25,09,33,17.50
2002,09,25,09,34,17.60
2002,09,25,09,35,17.60
2002,09,25,09,36,17.60
2002,09,25,09,37,17.50
2002,09,25,09,38,17.50
2002,09,25,09,39,17.50
2002,09,25,09,40,17.50
2002,09,25,09,41,17.50
2002,09,25,09,42,17.50
2002,09,25,09,43,17.50
2002,09,25,09,44,17.50
2002,09,25,09,45,17.50
2002,09,25,09,46,17.50
2002,09,25,09,47,17.50
2002,09,25,09,48,17.50
2002,09,25,09,49,17.50
2002,09,25,09,50,17.50
2002,09,25,09,51,17.50
2002,09,25,09,52,17.40
2002,09,25,09,53,17.40
2002,09,25,09,54,17.30
2002,09,25,09,55,17.30
2002,09,25,09,56,17.30
2002,09,25,09,57,17.30
2002,09,25,09,58,17.30
2002,09,25,09,59,17.40
2002,09,25,10,00,17.50
2002,09,25,10,01,17.50
2002,09,25,10,02,17.50
2002,09,25,10,03,17.60
2002,09,25,10,04,17.50
2002,09,25,10,05,17.50
2002,09,25,10,06,17.50
2002,09,25,10,07,17.40
2002,09,25,10,08,17.40
2002,09,25,10,09,17.40
2002,09,25,10,10,17.40
2002,09,25,10,11,17.50
2002,09,25,10,12,17.50
2002,09,25,10,13,17.50
2002,09,25,10,14,17.40
2002,09,25,10,15,17.40
2002,09,25,10,16,17.40
2002,09,25,10,17,17.40
2002,09,25,10,18,17.30
2002,09,25,10,19,17.30
2002,09,25,10,20,17.30
2002,09,25,10,21,17.30
2002,09,25,10,22,17.20
2002,09,25,10,23,17.30
2002,09,25,10,24,17.30
2002,09,25,10,25,17.30
2002,09,25,10,26,17.30
2002,09,25,10,27,17.30
2002,09,25,10,28,17.30
2002,09,25,10,29,17.20
2002,09,25,10,30,17.30
2002,09,25,10,31,17.30
2002,09,25,10,32,17.30
2002,09,25,10,33,17.40
2002,09,25,10,34,17.40
2002,09,25,10,35,17.40
2002,09,25,10,36,17.40
2002,09,25,10,37,17.40
2002,09,25,10,38,17.40
2002,09,25,10,39,17.30
2002,09,25,10,40,17.30
2002,09,25,10,41,17.30
2002,09,25,10,42,17.30
2002,09,25,10,43,17.30
2002,09,25,10,44,17.30
2002,09,25,10,45,17.30
2002,09,25,10,46,17.30
2002,09,25,10,47,17.20
2002,09,25,10,48,17.20
2002,09,25,10,49,17.30
2002,09,25,10,50,17.30
2002,09,25,10,51,17.30
2002,09,25,10,52,17.30
2002,09,25,10,53,17.30
2002,09,25,10,54,17.30
2002,09,25,10,55,17.30
2002,09,25,10,56,17.30
2002,09,25,10,57,17.30
2002,09,25,10,58,17.30
2002,09,25,10,59,17.30
2002,09,25,11,00,17.40
2002,09,25,11,01,17.40
2002,09,25,11,02,17.50
2002,09,25,11,03,17.50
2002,09,25,11,04,17.60
2002,09,25,11,05,17.60
2002,09,25,11,06,17.60
2002,09,25,11,07,17.70
2002,09,25,11,08,17.60
2002,09,25,11,09,17.60
2002,09,25,11,10,17.60
2002,09,25,11,11,17.70
2002,09,25,11,12,17.70
2002,09,25,11,13,17.70
2002,09,25,11,14,17.70
2002,09,25,11,15,17.60
2002,09,25,11,16,17.60
2002,09,25,11,17,17.60
2002,09,25,11,18,17.60
2002,09,25,11,19,17.70
2002,09,25,11,20,17.70
2002,09,25,11,21,17.70
2002,09,25,11,22,17.70
2002,09,25,11,23,17.70
2002,09,25,11,24,17.70
2002,09,25,11,25,17.80
2002,09,25,11,26,17.80
2002,09,25,11,27,17.80
2002,09,25,11,28,17.80
2002,09,25,11,29,17.80
2002,09,25,11,30,17.80
2002,09,25,11,31,17.80
2002,09,25,11,32,17.80
2002,09,25,11,33,17.70
2002,09,25,11,34,17.80
2002,09,25,11,35,17.90
2002,09,25,11,36,18.00
2002,09,25,11,37,18.10
2002,09,25,11,38,18.20
2002,09,25,11,39,18.20
2002,09,25,11,40,18.30
2002,09,25,11,41,18.30
2002,09,25,11,42,18.30
2002,09,25,11,43,18.30
2002,09,25,11,44,18.30
2002,09,25,11,45,18.20
2002,09,25,11,46,18.30
2002,09,25,11,47,18.30
2002,09,25,11,48,18.30
2002,09,25,11,49,18.40
2002,09,25,11,50,18.50
2002,09,25,11,51,18.50
2002,09,25,11,52,18.50
2002,09,25,11,53,18.50
2002,09,25,11,54,18.50
2002,09,25,11,55,18.60
2002,09,25,11,56,18.70
2002,09,25,11,57,18.70
2002,09,25,11,58,18.70
2002,09,25,11,59,18.60
2002,09,25,12,00,18.60
2002,09,25,12,01,18.60
2002,09,25,12,02,18.60
2002,09,25,12,03,18.70
2002,09,25,12,04,18.80
2002,09,25,12,05,18.80
2002,09,25,12,06,18.90
2002,09,25,12,07,18.90
2002,09,25,12,08,18.90
2002,09,25,12,09,18.80
2002,09,25,12,10,18.60
2002,09,25,12,11,18.50
2002,09,25,12,12,18.40
2002,09,25,12,13,18.40
2002,09,25,12,14,18.50
2002,09,25,12,15,18.50
2002,09,25,12,16,18.70
2002,09,25,12,17,18.70
2002,09,25,12,18,18.70
2002,09,25,12,19,18.70
2002,09,25,12,20,18.70
2002,09,25,12,21,18.90
2002,09,25,12,22,18.90
2002,09,25,12,23,19.00
2002,09,25,12,24,19.10
2002,09,25,12,25,19.20
2002,09,25,12,26,19.40
2002,09,25,12,27,19.40
2002,09,25,12,28,19.40
2002,09,25,12,29,19.40
2002,09,25,12,30,19.40
2002,09,25,12,31,19.40
2002,09,25,12,32,19.30
2002,09,25,12,33,19.30
2002,09,25,12,34,19.40
2002,09,25,12,35,19.40
2002,09,25,12,36,19.40
2002,09,25,12,37,19.50
2002,09,25,12,38,19.60
2002,09,25,12,39,19.70
2002,09,25,12,40,19.80
2002,09,25,12,41,19.80
2002,09,25,12,42,19.80
2002,09,25,12,43,19.80
2002,09,25,12,44,19.90
2002,09,25,12,45,19.80
2002,09,25,12,46,19.80
2002,09,25,12,47,19.70
2002,09,25,12,48,19.80
2002,09,25,12,49,19.90
2002,09,25,12,50,19.90
2002,09,25,12,51,20.00
2002,09,25,12,52,20.20
2002,09,25,12,53,20.20
2002,09,25,12,54,20.20
2002,09,25,12,55,20.20
2002,09,25,12,56,20.20
2002,09,25,12,57,20.20
2002,09,25,12,58,20.20
2002,09,25,12,59,20.20
2002,09,25,13,00,20.20
2002,09,25,13,01,20.20
2002,09,25,13,02,20.30
2002,09,25,13,03,20.30
2002,09,25,13,04,20.40
2002,09,25,13,05,20.50
2002,09,25,13,06,20.50
2002,09,25,13,07,20.60
2002,09,25,13,08,20.70
2002,09,25,13,09,20.50
2002,09,25,13,10,20.50
2002,09,25,13,11,20.40
2002,09,25,13,12,20.20
2002,09,25,13,13,20.20
2002,09,25,13,14,20.10
2002,09,25,13,15,20.20
2002,09,25,13,16,20.20
2002,09,25,13,17,20.30
2002,09,25,13,18,20.40
2002,09,25,13,19,20.50
2002,09,25,13,20,20.70
2002,09,25,13,21,20.80
2002,09,25,13,22,20.80
2002,09,25,13,23,20.80
2002,09,25,13,24,20.80
2002,09,25,13,25,21.00
2002,09,25,13,26,21.10
2002,09,25,13,27,21.20
2002,09,25,13,28,21.30
2002,09,25,13,29,21.30
2002,09,25,13,30,21.30
2002,09,25,13,31,21.40
2002,09,25,13,32,21.40
2002,09,25,13,33,21.40
2002,09,25,13,34,21.40
2002,09,25,13,35,21.30
2002,09,25,13,36,21.30
2002,09,25,13,37,21.40
2002,09,25,13,38,21.40
2002,09,25,13,39,21.40
2002,09,25,13,40,21.40
2002,09,25,13,41,21.30
2002,09,25,13,42,21.30
2002,09,25,13,43,21.30
2002,09,25,13,44,21.30
2002,09,25,13,45,21.30
2002,09,25,13,46,21.40
2002,09,25,13,47,21.40
2002,09,25,13,48,21.40
2002,09,25,13,49,21.50
2002,09,25,13,50,21.60
2002,09,25,13,51,21.60
2002,09,25,13,52,21.70
2002,09,25,13,53,21.70
2002,09,25,13,54,21.80
2002,09,25,13,55,21.90
2002,09,25,13,56,21.80
2002,09,25,13,57,21.80
2002,09,25,13,58,21.80
2002,09,25,13,59,21.70
2002,09,25,14,00,21.70
2002,09,25,14,01,21.80
2002,09,25,14,02,21.80
2002,09,25,14,03,21.70
2002,09,25,14,04,21.70
2002,09,25,14,05,21.80
2002,09,25,14,06,21.90
2002,09,25,14,07,21.90
2002,09,25,14,08,21.90
2002,09,25,14,09,21.80
2002,09,25,14,10,21.80
2002,09,25,14,11,21.80
2002,09,25,14,12,21.80
2002,09,25,14,13,21.70
2002,09,25,14,14,21.70
2002,09,25,14,15,21.70
2002,09,25,14,16,21.70
2002,09,25,14,17,21.70
2002,09,25,14,18,21.70
2002,09,25,14,19,21.70
2002,09,25,14,20,21.90
2002,09,25,14,21,21.90
2002,09,25,14,22,21.90
2002,09,25,14,23,22.00
2002,09,25,14,24,22.00
2002,09,25,14,25,22.10
2002,09,25,14,26,22.10
2002,09,25,14,27,22.20
2002,09,25,14,28,22.20
2002,09,25,14,29,22.20
2002,09,25,14,30,22.20
2002,09,25,14,31,22.10
2002,09,25,14,32,22.10
2002,09,25,14,33,22.20
2002,09,25,14,34,22.20
2002,09,25,14,35,22.20
2002,09,25,14,36,22.30
2002,09,25,14,37,22.30
2002,09,25,14,38,22.20
2002,09,25,14,39,22.30
2002,09,25,14,40,22.40
2002,09,25,14,41,22.40
2002,09,25,14,42,22.40
2002,09,25,14,43,22.40
2002,09,25,14,44,22.30
2002,09,25,14,45,22.30
2002,09,25,14,46,22.20
2002,09,25,14,47,22.20
2002,09,25,14,48,22.20
2002,09,25,14,49,22.10
2002,09,25,14,50,22.00
2002,09,25,14,51,21.90
2002,09,25,14,52,21.90
2002,09,25,14,53,21.90
2002,09,25,14,54,21.90
2002,09,25,14,55,21.90
2002,09,25,14,56,21.90
2002,09,25,14,57,22.00
2002,09,25,14,58,22.00
2002,09,25,14,59,21.90
2002,09,25,15,00,21.90
2002,09,25,15,01,21.90
2002,09,25,15,02,21.90
2002,09,25,15,03,21.90
2002,09,25,15,04,21.90
2002,09,25,15,05,21.90
2002,09,25,15,06,21.90
2002,09,25,15,07,21.90
2002,09,25,15,08,21.90
2002,09,25,15,09,21.80
2002,09,25,15,10,21.80
2002,09,25,15,11,21.80
2002,09,25,15,12,21.80
2002,09,25,15,13,21.80
2002,09,25,15,14,21.90
2002,09,25,15,15,21.90
2002,09,25,15,16,21.90
2002,09,25,15,17,21.90
2002,09,25,15,18,22.00
2002,09,25,15,19,22.10
2002,09,25,15,20,22.20
2002,09,25,15,21,22.20
2002,09,25,15,22,22.20
2002,09,25,15,23,22.20
2002,09,25,15,24,22.20
2002,09,25,15,25,22.20
2002,09,25,15,26,22.30
2002,09,25,15,27,22.30
2002,09,25,15,28,22.30
2002,09,25,15,29,22.40
2002,09,25,15,30,22.40
2002,09,25,15,31,22.40
2002,09,25,15,32,22.40
2002,09,25,15,33,22.40
2002,09,25,15,34,22.40
2002,09,25,15,35,22.50
2002,09,25,15,36,22.50
2002,09,25,15,37,22.40
2002,09,25,15,38,22.40
2002,09,25,15,39,22.40
2002,09,25,15,40,22.50
2002,09,25,15,41,22.50
2002,09,25,15,42,22.40
2002,09,25,15,43,22.30
2002,09,25,15,44,22.30
2002,09,25,15,45,22.30
2002,09,25,15,46,22.40
2002,09,25,15,47,22.40
2002,09,25,15,48,22.50
2002,09,25,15,49,22.40
2002,09,25,15,50,22.40
2002,09,25,15,51,22.40
2002,09,25,15,52,22.50
2002,09,25,15,53,22.50
2002,09,25,15,54,22.50
2002,09,25,15,55,22.50
2002,09,25,15,56,22.60
2002,09,25,15,57,22.50
2002,09,25,15,58,22.60
2002,09,25,15,59,22.60
2002,09,25,16,00,22.60
2002,09,25,16,01,22.60
2002,09,25,16,02,22.60
2002,09,25,16,03,22.60
2002,09,25,16,04,22.70
2002,09,25,16,05,22.70
2002,09,25,16,06,22.60
2002,09,25,16,07,22.60
2002,09,25,16,08,22.60
2002,09,25,16,09,22.60
2002,09,25,16,10,22.60
2002,09,25,16,11,22.60
2002,09,25,16,12,22.40
2002,09,25,16,13,22.30
2002,09,25,16,14,22.30
2002,09,25,16,15,22.30
2002,09,25,16,16,22.30
2002,09,25,16,17,22.40
2002,09,25,16,18,22.40
2002,09,25,16,19,22.50
2002,09,25,16,20,22.50
2002,09,25,16,21,22.60
2002,09,25,16,22,22.60
2002,09,25,16,23,22.80
2002,09,25,16,24,22.90
2002,09,25,16,25,22.90
2002,09,25,16,26,22.90
2002,09,25,16,27,22.90
2002,09,25,16,28,23.00
2002,09,25,16,29,23.00
2002,09,25,16,30,23.10
2002,09,25,16,31,23.10
2002,09,25,16,32,23.10
2002,09,25,16,33,23.10
2002,09,25,16,34,23.00
2002,09,25,16,35,23.00
2002,09,25,16,36,23.10
2002,09,25,16,37,23.10
2002,09,25,16,38,23.00
2002,09,25,16,39,23.00
2002,09,25,16,40,23.00
2002,09,25,16,41,23.00
2002,09,25,16,42,22.90
2002,09,25,16,43,22.90
2002,09,25,16,44,22.90
2002,09,25,16,45,22.90
2002,09,25,16,46,22.80
2002,09,25,16,47,22.60
2002,09,25,16,48,22.60
2002,09,25,16,49,22.70
2002,09,25,16,50,22.70
2002,09,25,16,51,22.70
2002,09,25,16,52,22.80
2002,09,25,16,53,22.80
2002,09,25,16,54,22.70
2002,09,25,16,55,22.70
2002,09,25,16,56,22.80
2002,09,25,16,57,22.80
2002,09,25,16,58,22.80
2002,09,25,16,59,22.80
2002,09,25,17,00,22.90
2002,09,25,17,01,22.90
2002,09,25,17,02,22.90
2002,09,25,17,03,22.90
2002,09,25,17,04,22.90
2002,09,25,17,05,22.90
2002,09,25,17,06,22.90
2002,09,25,17,07,22.90
2002,09,25,17,08,22.90
2002,09,25,17,09,23.00
2002,09,25,17,10,23.10
2002,09,25,17,11,23.20
2002,09,25,17,12,23.20
2002,09,25,17,13,23.30
2002,09,25,17,14,23.30
2002,09,25,17,15,23.20
2002,09,25,17,16,23.00
2002,09,25,17,17,22.90
2002,09,25,17,18,22.70
2002,09,25,17,19,22.70
2002,09,25,17,20,22.80
2002,09,25,17,21,22.80
2002,09,25,17,22,22.90
2002,09,25,17,23,22.90
2002,09,25,17,24,22.90
2002,09,25,17,25,22.90
2002,09,25,17,26,22.80
2002,09,25,17,27,22.80
2002,09,25,17,28,22.80
2002,09,25,17,29,22.70
2002,09,25,17,30,22.60
2002,09,25,17,31,22.50
2002,09,25,17,32,22.50
2002,09,25,17,33,22.40
2002,09,25,17,34,22.40
2002,09,25,17,35,22.40
2002,09,25,17,36,22.30
2002,09,25,17,37,22.20
2002,09,25,17,38,22.20
2002,09,25,17,39,22.10
2002,09,25,17,40,22.10
2002,09,25,17,41,22.00
2002,09,25,17,42,22.00
2002,09,25,17,43,22.00
2002,09,25,17,44,22.00
2002,09,25,17,45,22.00
2002,09,25,17,46,22.10
2002,09,25,17,47,22.00
2002,09,25,17,48,22.00
2002,09,25,17,49,21.90
2002,09,25,17,50,21.80
2002,09,25,17,51,21.80
2002,09,25,17,52,21.70
2002,09,25,17,53,21.70
2002,09,25,17,54,21.60
2002,09,25,17,55,21.60
2002,09,25,17,56,21.50
2002,09,25,17,57,21.40
2002,09,25,17,58,21.40
2002,09,25,17,59,21.40
2002,09,25,18,00,21.40
2002,09,25,18,01,21.40
2002,09,25,18,02,21.40
2002,09,25,18,03,21.30
2002,09,25,18,04,21.30
2002,09,25,18,05,21.30
2002,09,25,18,06,21.30
2002,09,25,18,07,21.30
2002,09,25,18,08,21.20
2002,09,25,18,09,21.20
2002,09,25,18,10,21.20
2002,09,25,18,11,21.20
2002,09,25,18,12,21.10
2002,09,25,18,13,21.10
2002,09,25,18,14,21.10
2002,09,25,18,15,21.10
2002,09,25,18,16,21.10
2002,09,25,18,17,21.10
2002,09,25,18,18,21.10
2002,09,25,18,19,21.20
2002,09,25,18,20,21.20
2002,09,25,18,21,21.20
2002,09,25,18,22,21.10
2002,09,25,18,23,21.10
2002,09,25,18,24,21.00
2002,09,25,18,25,21.00
2002,09,25,18,26,21.00
2002,09,25,18,27,21.00
2002,09,25,18,28,21.00
2002,09,25,18,29,21.00
2002,09,25,18,30,20.90
2002,09,25,18,31,20.80
2002,09,25,18,32,20.80
2002,09,25,18,33,20.80
2002,09,25,18,34,20.80
2002,09,25,18,35,20.90
2002,09,25,18,36,20.90
2002,09,25,18,37,20.90
2002,09,25,18,38,21.00
2002,09,25,18,39,21.00
2002,09,25,18,40,21.00
2002,09,25,18,41,21.00
2002,09,25,18,42,21.00